Location: Les Jeannots
(43.2262°N, 5.5774°E)
Time: 18:06:36
(UTC+00:00)

SeaSat 1 - Pass Details

Date: 05 July 2020
Orbit: 744 x 748 km, 108.0° (Epoch: 12 August)

Event Time Altitude Azimuth Distance (km) Brightness Sun altitude
Rises 23:44:59 0° 43° (NE) 3,197 6.4 -24.1°
Reaches altitude 10° 23:47:57 10° 61° (ENE) 2,268 5.3 -24.1°
Enters shadow 23:51:18 18° 105° (ESE) 1,760 4.2 -24.1°
